COSMOS 1275 DEB

Satellite information

Favourite Embed

Satellite Type and Status

DEBRISIN ORBIT

Key statistics

Satellite COSMOS 1275 DEB at a glance.

Uptime

16158

Days in orbit

Revolutions

≈ 14.3

Per day

Orbit

LEO

Low Earth Orbit

Inclination

82.9

Latest

Satellite identification and parameters

Extended collection of information and parameters for COSMOS 1275 DEB.

Object identification

Identified? True

Debris? True

Object name: COSMOS 1275 DEB

International designator: 1981-053CP

Object number (NORAD): 12746

Object ID (CCSDS): 12746

Country: COMMONWEALTH OF INDEPENDENT STATES (CIS)

Current information (Y/N): Y

RCS size: SMALL

Orbital parameters

Period: 100.849 minutes

Inclination: 82.9384 deg

SMA: 7176.971 km

Apoapsis: 825.994 km

Periapsis: 771.677 km

RAAN: 29.4795 deg

Eccentricy: 0.00378409

Argument of periapsis: 75.8969 deg

Mean anomaly: 284.6418 deg

Mean motion: 14.27877673 rev/day

Mean motion (dot): 0.00005807 rev/day2

B* drag term: 0.0023222207 1/REarth

Two-line elements (TLE)

Creation date: Aug. 30, 2025, 3:38 a.m.

Reference frame: TEME

Reference center: EARTH

Epoch: Aug. 29, 2025, 8:35 p.m. UTC

TLE line 0: 0 COSMOS 1275 DEB

TLE line 1: 1 12746U 81053CP 25241.85788788 .00005807 00000-0 23222-2 0 9993

TLE line 2: 2 12746 82.9384 29.4795 0037841 75.8969 284.6418 14.27877673245443

Live tracking on map

Real-time ground track for satellite COSMOS 1275 DEB.

In-orbit conjunctions

A list of the most updated potential collisions computed for object COSMOS 1275 DEB.

Target Orbit TCA Probability of collision Miss distance Type
DELTA 1 DEB SSO 2025-07-12 04:48:49 0.0001031576 187.0 (m) DEBRIS
THOR ABLESTAR DEB LEO 2025-06-28 23:57:16 0.000172802 198.0 (m) DEBRIS
CZ-6A DEB LEO 2024-11-29 08:23:42 0.0001384241 289.0 (m) DEBRIS
NOAA 16 DEB SSO 2024-11-09 01:04:17 0.0008767932 223.0 (m) DEBRIS
CZ-6A DEB LEO 2024-09-25 07:11:20 0.002192662 59.0 (m) DEBRIS

Associated space launch

Navigation satellite providing location information for the Tsiklon-B navigation system

COSMOS 1275 DEB was lifted into orbit during the mission ‘Kosmos-3M | Parus 27’, on board a Kosmos-3M space rocket.

The launch took place on June 4, 1981, 3:41 p.m. from 132/2.

For more information about the launch, click the button.

Launch to space Kosmos-3M | Parus 27
Kosmos-3M | Parus 27

Agency: N/A

Status: Launch Successful

Launch date: June 4, 1981, 3:41 p.m. UTC

Rocket: Kosmos-3M

Launch pad: 132/2

Location: Plesetsk Cosmodrome, Russian Federation

...

Latest news about this satellite

There are no fresh news available about this satellite. Check back as we update our databases every day.


Newsletter sign-up

Weekly statistics, charts and insights to help you stay on top of the space industry.